Weather History for Buffalo, WY

Change the Weather History Date:

Thursday, October 25, 2012

  Actual Average Record
Temperature  
Mean Temperature 24 °F 43 °F  
Max Temperature 27 °F 55 °F 74 °F (2007)
Min Temperature 21 °F 32 °F 21 °F (2012)
Degree Days  
Heating Degree Days 41 22  
Month to date heating degree days 454  
Since 1 July heating degree days 768  
Cooling Degree Days 0 0  
Month to date cooling degree days 0  
Year to date cooling degree days 491  
Moisture  
Dew Point 22 °F    
Average Humidity 88    
Maximum Humidity 93    
Minimum Humidity 78    
Precipitation  
Precipitation 0.04 in 0.02 in 0.04 in (2012)
Month to date precipitation 0.86  
Year to date precipitation 12.44  
Sea Level Pressure  
Sea Level Pressure 30.26 in    
Wind  
Wind Speed 6 mph (North)    
Max Wind Speed 12 mph    
Max Gust Speed 22 mph    
Visibility 4 miles    
Events Fog , Snow    
T = Trace of Precipitation, MM = Missing Value Source: NWS Daily Summary

Daily Weather History Graph

Daily Weather History Graph

Search for Another Location

Airport:

Trip Planner

Search our weather history database for the weather conditions in past years. The results will help you decide how hot, cold, wet, or windy it might be!

Date:

Astronomy

Oct. 25, 2012 Rise Set
Actual Time 7:35 AM MDT 6:05 PM MDT
Civil Twilight 7:05 AM MDT 6:35 PM MDT
Nautical Twilight 6:31 AM MDT 7:09 PM MDT
Astronomical Twilight 5:58 AM MDT 7:42 PM MDT
Moon 4:00 PM MDT (10/25) 3:26 AM MDT (10/25)
Length of Visible Light 11h 29m
Length of Day
10h 30m
Waxing Gibbous, 85% of the Moon is Illuminated
Oct 25
Waxing Gibbous
Oct 29
Full
Nov 6
Last Quarter
Nov 13
New
Nov 20
First Quarter

Hourly Weather History & Observations

Time (MDT) Temp. Windchill Dew Point Humidity Pressure Visibility Wind Dir Wind Speed Gust Speed Precip Events Conditions
12:53 AM 25.0 °F - 19.0 °F 78% 30.22 in 10.0 mi Calm Calm - N/A   Clear
1:53 AM 25.0 °F - 19.0 °F 78% 30.22 in 10.0 mi Calm Calm - N/A   Mostly Cloudy
2:53 AM 27.0 °F 20.5 °F 21.0 °F 78% 30.22 in 10.0 mi NNW 5.8 mph - N/A   Overcast
3:53 AM 25.0 °F 20.7 °F 21.0 °F 85% 30.22 in 10.0 mi NW 3.5 mph - N/A   Mostly Cloudy
4:53 AM 27.0 °F 20.5 °F 21.9 °F 81% 30.22 in 10.0 mi NW 5.8 mph - N/A   Overcast
5:14 AM 26.6 °F 19.1 °F 21.2 °F 80% 30.14 in 10.0 mi North 6.9 mph - N/A   Overcast
5:39 AM 26.6 °F 22.6 °F 23.0 °F 86% 30.14 in 10.0 mi NNW 3.5 mph - N/A   Overcast
5:53 AM 26.1 °F 19.4 °F 23.0 °F 88% 30.24 in 10.0 mi NNW 5.8 mph - N/A   Overcast
6:53 AM 26.1 °F 18.4 °F 23.0 °F 88% 30.25 in 10.0 mi North 6.9 mph - N/A   Overcast
7:10 AM 26.6 °F 19.1 °F 23.0 °F 86% 30.15 in 8.0 mi North 6.9 mph - N/A   Overcast
7:53 AM 25.0 °F 17.1 °F 23.0 °F 92% 30.26 in 4.0 mi NNW 6.9 mph - N/A   Overcast
8:20 AM 24.8 °F 16.9 °F 23.0 °F 93% 30.16 in 2.5 mi North 6.9 mph - N/A   Overcast
8:32 AM 26.6 °F 20.0 °F 23.0 °F 86% 30.17 in 1.8 mi North 5.8 mph - N/A   Overcast
8:37 AM 26.6 °F 20.0 °F 24.8 °F 93% 30.17 in 0.8 mi North 5.8 mph - N/A   Overcast
8:53 AM 25.0 °F 18.1 °F 23.0 °F 92% 30.28 in 0.2 mi NNE 5.8 mph - N/A Fog Light Freezing Fog
9:15 AM 24.8 °F 20.5 °F 23.0 °F 93% 30.19 in 1.2 mi NE 3.5 mph - N/A   Overcast
9:28 AM 24.8 °F 19.1 °F 23.0 °F 93% 30.19 in 0.8 mi ENE 4.6 mph - N/A   Mist
9:47 AM 26.6 °F 20.0 °F 23.0 °F 86% 30.19 in 1.0 mi NE 5.8 mph - N/A   Mist
9:50 AM 26.6 °F 20.0 °F 23.0 °F 86% 30.19 in 2.5 mi North 5.8 mph - N/A   Mist
10:41 AM 26.6 °F 19.1 °F 23.0 °F 86% 30.20 in 8.0 mi North 6.9 mph - N/A   Overcast
10:57 AM 26.6 °F 20.0 °F 23.0 °F 86% 30.21 in 0.5 mi NNE 5.8 mph - N/A Fog Light Freezing Fog
11:53 AM 25.0 °F 16.3 °F 23.0 °F 92% 30.33 in 0.2 mi North 8.1 mph - N/A Fog Light Freezing Fog
12:05 PM 24.8 °F 16.1 °F 23.0 °F 93% 30.21 in 0.2 mi North 8.1 mph - N/A Fog Light Freezing Fog
12:53 PM 25.0 °F 17.1 °F 23.0 °F 92% 30.33 in 0.2 mi North 6.9 mph - N/A Fog Light Freezing Fog
1:03 PM 24.8 °F 17.9 °F 23.0 °F 93% 30.20 in 2.0 mi North 5.8 mph - N/A   Overcast
1:24 PM 24.8 °F 16.9 °F 23.0 °F 93% 30.20 in 1.8 mi NNE 6.9 mph - N/A   Overcast
1:53 PM 25.0 °F 16.3 °F 21.9 °F 88% 30.33 in 1.0 mi North 8.1 mph - N/A   Mist
2:00 PM 24.8 °F 16.1 °F 21.2 °F 86% 30.21 in 0.5 mi North 8.1 mph - N/A Fog Light Freezing Fog
2:23 PM 24.8 °F 16.9 °F 21.2 °F 86% 30.22 in 3.0 mi North 6.9 mph - N/A   Overcast
2:34 PM 24.8 °F 15.3 °F 21.2 °F 86% 30.22 in 1.8 mi North 9.2 mph - N/A   Overcast
2:40 PM 24.8 °F 16.1 °F 21.2 °F 86% 30.22 in 0.8 mi North 8.1 mph - N/A   Mist
2:53 PM 24.1 °F 15.2 °F 21.9 °F 91% 30.33 in 1.0 mi North 8.1 mph - N/A   Mist
3:01 PM 24.8 °F 16.1 °F 21.2 °F 86% 30.22 in 1.8 mi North 8.1 mph - N/A   Overcast
3:08 PM 24.8 °F 16.9 °F 21.2 °F 86% 30.22 in 2.5 mi North 6.9 mph - N/A   Overcast
3:44 PM 24.8 °F 16.1 °F 21.2 °F 86% 30.23 in 4.0 mi North 8.1 mph - 0.00 in Snow Light Snow
3:53 PM 24.1 °F 16.0 °F 21.0 °F 88% 30.35 in 3.0 mi North 6.9 mph - 0.00 in Snow Light Snow
4:14 PM 24.8 °F 15.3 °F 21.2 °F 86% 30.24 in 1.5 mi NNE 9.2 mph - 0.00 in Snow Light Snow
4:23 PM 24.8 °F 16.1 °F 21.2 °F 86% 30.24 in 1.0 mi NNE 8.1 mph - 0.00 in Snow Light Snow
4:25 PM 24.8 °F 15.3 °F 21.2 °F 86% 30.24 in 1.2 mi North 9.2 mph - 0.00 in Snow Light Snow
4:34 PM 24.8 °F 15.3 °F 21.2 °F 86% 30.24 in 3.0 mi North 9.2 mph - 0.00 in Snow Light Snow
4:53 PM 24.1 °F 13.1 °F 21.0 °F 88% 30.37 in 6.0 mi North 11.5 mph - 0.00 in Snow Light Snow
5:13 PM 24.8 °F 16.1 °F 21.2 °F 86% 30.26 in 1.8 mi North 8.1 mph - 0.00 in Snow Light Snow
5:53 PM 24.1 °F 15.2 °F 21.0 °F 88% 30.39 in 1.0 mi North 8.1 mph - 0.01 in Snow Light Snow
6:02 PM 24.8 °F 16.1 °F 21.2 °F 86% 30.28 in 1.0 mi North 8.1 mph - 0.00 in Snow Light Snow
6:17 PM 23.0 °F 13.9 °F 21.2 °F 93% 30.28 in 1.5 mi North 8.1 mph - 0.01 in Snow Light Snow
6:24 PM 23.0 °F 14.7 °F 21.2 °F 93% 30.28 in 1.5 mi North 6.9 mph - 0.01 in Snow Light Snow
6:39 PM 23.0 °F 13.1 °F 21.2 °F 93% 30.29 in 1.0 mi North 9.2 mph - 0.01 in Snow Light Snow
6:48 PM 23.0 °F 14.7 °F 21.2 °F 93% 30.29 in 1.0 mi North 6.9 mph - 0.02 in Snow Light Snow
6:53 PM 23.0 °F 14.7 °F 21.0 °F 92% 30.41 in 1.0 mi North 6.9 mph - 0.02 in Snow Light Snow
7:03 PM 23.0 °F 13.9 °F 21.2 °F 93% 30.29 in 1.2 mi North 8.1 mph - 0.00 in Snow Light Snow
7:28 PM 23.0 °F 14.7 °F 21.2 °F 93% 30.30 in 1.5 mi North 6.9 mph - 0.01 in Snow Light Snow
7:53 PM 23.0 °F 13.1 °F 19.9 °F 88% 30.44 in 2.0 mi North 9.2 mph - 0.01 in Snow Light Snow
8:00 PM 23.0 °F 13.9 °F 19.4 °F 86% 30.31 in 1.8 mi North 8.1 mph - 0.00 in Snow Light Snow
8:06 PM 23.0 °F 13.9 °F 19.4 °F 86% 30.31 in 2.0 mi North 8.1 mph - 0.00 in Snow Light Snow
8:53 PM 21.9 °F 11.7 °F 19.9 °F 92% 30.44 in 7.0 mi North 9.2 mph 21.9 mph 0.00 in   Overcast
9:53 PM 21.9 °F 12.5 °F 19.0 °F 89% 30.46 in 10.0 mi North 8.1 mph - 0.00 in   Overcast
10:53 PM 21.9 °F 11.7 °F 19.0 °F 89% 30.47 in 9.0 mi NNW 9.2 mph - N/A   Overcast
11:24 PM 21.2 °F 10.9 °F 19.4 °F 93% 30.34 in 10.0 mi NW 9.2 mph - N/A   Overcast